Volver al catálogo

FENGYUN 1C DEB

ActivoPO
NORAD 30060·DEBRIS·🇨🇳 China

Lanzado May 10, 1999 desde Taiyuan Satellite Launch Center

Loading…

Próximos Pases (próximas 24 horas)

TLE

ActualizadoSource: Space-Track

Época: Sep 13, 2026, 20:22 UTC

1 30060U 99025PM  26256.84927987  .00000724  00000-0  91609-3 0  9990
2 30060  99.2946 108.5412 0343867 105.4053 272.9727 13.44418517959399

Sigue FENGYUN 1C DEB en tiempo real con AllMySat

Download on the App Store